Glonass Operational
NORAD ID: 26987
Int'l Code: 2001-053A
Perigee: 19,119.7 km
Apogee: 19,153.8 km
Inclination: 63.0 °
Period: 675.7 minutes
Semi major axis: 25507 km
Launch date: December 1, 2001
Source: Commonwealth of Independent States (former USSR) (CIS)
SV: 711
Comments: Russia's version of the GPS system, functions the same; there has been cooperation between the two; much scaled-back constellation
Two Line Element Set (TLE):
1 26987U 01053A 13165.81875748 .00000029 00000-0 00000+0 0 7397
2 26987 063.0375 227.6354 0006691 197.3291 218.5871 02.13105461 89788
Source: AFSPC
NASA's NSSDC Master Catalog entry for COSMOS 2382 (GLONASS)